Location: Malvern Link
(52.1333°N, 2.3000°W)
Time: 11:01:40
(UTC+00:00)

AO-92 - Pass Details

Date: 11 July 2022
Orbit: 470 x 481 km, 97.4° (Epoch: 07 August)

Event Time Altitude Azimuth Distance (km) Brightness Sun altitude
Exits shadow 21:30:27 10° 141° (SE) 1,655 ? -7.6°
Maximum altitude 21:33:49 42° 70° (ENE) 707 ? -8.0°
Drops below altitude 10° 21:37:14 10° 359° (N) 1,678 ? -8.3°
Sets 21:39:22 0° 352° (N) 2,564 ? -8.5°
